Flag for Germany Weather past 2 weeks in Biberach an der Riss, Baden-Württemberg, Germany

Now
82 °F

Broken clouds.


Feels Like: 85 °F
Forecast: 60 / 71 °F
Wind: 6 mph from Southwest

Location: Laupheim Airport

Current Time: Jul 7, 2015 at 10:10:27 PM

Latest Report: Jul 7, 2015 at 9:20 PM


Visibility: N/A

Pressure: 29.80 "Hg (28.04 "Hg at 536m altitude)

Humidity: 58%

Dew point: 66 °F

Location of Biberach an der RissLocation

Historic Weather in Biberach an der Riss — Graph

°F

Biberach an der Riss temperature yesterday

Maximum temperature yesterday: 82 °F (at 4:20 PM)
Minimum temperature yesterday: 68 °F (at 4:20 AM)
Average temperature yesterday: 76 °F

Past Weeks' High & Low Weather Summary

 TemperatureHumidityPressure
High93 °F (Jul 5, 2:20 PM)100% (Jul 7, 4:20 AM)30.30 "Hg (Jul 7, 4:20 AM)
Low46 °F (Jun 25, 5:20 AM)32% (Jul 5, 5:20 PM)29.74 "Hg (Jun 22, 9:20 PM)
Average69 °F67%30.14 "Hg
* Reported Jun 22 8:20 PM — Jul 7 8:20 PM, Biberach an der Riss, Weather by CustomWeather, © 2015

Note: Actual official high and low records may vary slightly from our data, if they occured in-between our weather recording intervals... More about our weather records

Advertising

Biberach an der Riss weather history for previous 24 hours

 ConditionsComfort  
Time TempWeatherWind HumidityBarometerVisibility
8:20 PM
Tue, Jul 7
84 °FPartly sunny.5 mph51%29.80 "HgN/A
7:20 PM90 °FScattered clouds.7 mph43%29.83 "HgN/A
6:20 PM90 °FPassing clouds.8 mph43%29.83 "HgN/A
5:20 PM91 °FPassing clouds.8 mph38%29.89 "HgN/A
4:20 PM90 °FPassing clouds.13 mph43%29.89 "HgN/A
3:20 PM90 °FPassing clouds.13 mph43%29.92 "HgN/A
2:20 PM90 °FPassing clouds.16 mph43%29.95 "HgN/A
1:20 PM88 °FPassing clouds.10 mph52%29.95 "HgN/A
12:20 PM86 °FPassing clouds.7 mph52%29.98 "HgN/A
11:20 AM81 °FScattered clouds.5 mph66%30.01 "HgN/A
10:20 AM77 °FScattered clouds.3 mph74%30.01 "HgN/A
9:20 AM75 °FPassing clouds.1 mph74%30.01 "HgN/A
8:20 AM72 °FPassing clouds.1 mph83%30.04 "HgN/A
7:47 AM70 °FPassing clouds.No wind83%30.04 "Hg6 mi
7:20 AM68 °FPassing clouds.1 mph88%30.04 "Hg4 mi
6:45 AM64 °FFog.2 mph100%30.04 "Hg3 mi
5:20 AM64 °FFog.1 mph94%30.07 "Hg4 mi
4:20 AM64 °FFog.2 mph100%30.07 "Hg6 mi
3:20 AM66 °FMild.1 mph94%30.07 "HgN/A
2:20 AM68 °FMild.1 mph94%30.09 "HgN/A
1:20 AM68 °FMild.No wind94%30.09 "HgN/A
12:20 AM70 °FMild.2 mph88%30.09 "HgN/A
11:20 PM
Mon, Jul 6
73 °FMild.3 mph78%30.12 "HgN/A
10:20 PM75 °FPassing clouds.6 mph74%30.12 "HgN/A
Weather by CustomWeather, © 2015

See weather overviewHow to use our weather pages